Tracking 31027 objects as of 19-Jul-2025
HD Live streaming from Space Station
objects crossing your sky now

SL-8 DEB

Track SL-8 DEB now!
10-day predictions


NORAD ID: 25085
Int'l Code: 1991-009CX
Perigee: 1,445.4 km
Apogee: 1,717.3 km
Inclination: 74.1 °
Period: 117.6 minutes
Semi major axis: 7952 km
RCS: 0.0159 m2 (small)
Launch date: February 12, 1991
Source: Commonwealth of Independent States (former USSR) (CIS)
Launch site: PLESETSK MISSILE AND SPACE COMPLEX (PKMTR)

Note: This is SATELLITE DEBRIS
Your satellite tracking list
Your tracking list is empty




NASA's NSSDC Master Catalog

Two Line Element Set (TLE):
1 25085U 91009CX  25195.22068868  .00000553  00000-0  49694-2 0  9998
2 25085  74.1107 276.0634 0170976 248.1066 144.6645 12.24224676369685
Source of the keplerian elements: AFSPC